Terug naar catalogus

THOR ABLESTAR DEB

ActiefLEO
NORAD 323·DEBRIS·🇺🇸 United States

Gelanceerd Jun 29, 1961 vanaf Cape Canaveral Space Force Station

Loading…

Volgende Passages (komende 24 uur)

TLE

VersSource: Space-Track

Epoch: Sep 6, 2026, 09:47 UTC

1 00323U 61015CZ  26249.40786310  .00000523  00000-0  29549-3 0  9995
2 00323  66.8362 252.8865 0072551  22.5369 337.8882 14.16510748339971

Volg THOR ABLESTAR DEB in realtime met AllMySat

Download on the App Store